Hourly Data Report for October 20, 2013

All times are specified in Local Standard Time (LST). Add 1 hour to adjust for Daylight Saving Time where and when it is observed.

POND INLET A
NUNAVUT

72°41'22.000" N
77°58'08.000" W
61.60 m
2403206
71095
YIO

Download Data

Hourly Data (October 2013)
Hourly Data Report for October 20, 2013
Temp Definition
°C
Dew Point Temp Definition
°C
Rel Hum Definition
%
Wind Dir Definition
10's deg

Wind Spd Definition
km/h
Visibility Definition
km
Stn Press Definition
kPa
Hmdx Definition


Wind Chill Definition


Weather Definition


TIME
00:00 Legend Double Dagger -2.5 -3.5 93 20 13 16.1 101.11   -7 LegendNANA
01:00 Legend Double Dagger -2.9 -3.7 94 24 8 16.1 101.14   -6 LegendNANA
02:00 Legend Double Dagger -4.1 -5.5 90 10 5 16.1 101.15   -6 LegendNANA
03:00 Legend Double Dagger -5.9 -6.7 94 13 4 16.1 101.16   -8 LegendNANA
04:00 Legend Double Dagger -5.0 -7.1 85 14 11 16.1 101.17   -10 LegendNANA
05:00 Legend Double Dagger -4.0 -6.3 84 14 15 16.1 101.18   -9 LegendNANA
06:00 Legend Double Dagger -3.7 -6.2 83 16 15 16.1 101.20   -9 LegendNANA
07:00 Legend Double Dagger -3.5 -5.1 89 18 11 16.1 101.23   -8 LegendNANA
08:00 Legend Double Dagger -5.6 -6.7 92 18 9 16.1 101.24   -10 LegendNANA
09:00 Legend Double Dagger -5.4 -6.7 91 15 17 16.1 101.27   -11 LegendNANA
10:00 Legend Double Dagger -4.5 -5.8 91 15 15 16.1 101.28   -10 LegendNANA
11:00 Legend Double Dagger -3.7 -5.1 90 15 13 16.1 101.30   -9 LegendNANA
12:00 Legend Double Dagger -3.5 -4.8 91 16 13 16.1 101.32   -8 LegendNANA
13:00 Legend Double Dagger -3.7 -4.7 93 17 9 1.0 101.33   -7 LegendNANA
14:00 Legend Double Dagger -3.0 -4.0 93 28 9 16.1 101.35   -7 LegendNANA
15:00 Legend Double Dagger -3.1 -4.2 92 25 13 16.1 101.37   -8 LegendNANA
16:00 Legend Double Dagger -4.1 -5.1 93 16 11 16.1 101.41   -9 LegendNANA
17:00 Legend Double Dagger -4.4 -5.1 95 15 15 3.6 101.42   -10 LegendNANA
18:00 Legend Double Dagger -4.7 -5.7 93 15 15 4.8 101.45   -10 LegendNANA
19:00 Legend Double Dagger -5.0 -5.8 94 16 15 4.8 101.48   -11 LegendNANA
20:00 Legend Double Dagger -5.1 -6.3 91 15 13 2.8 101.49   -10 LegendNANA
21:00 Legend Double Dagger -5.7 -7.4 88 17 17 8.1 101.49   -12 LegendNANA
22:00 Legend Double Dagger -6.4 -8.1 88 14 15 16.1 101.49   -12 LegendNANA
23:00 Legend Double Dagger -7.8 -9.7 87 15 15 16.1 101.49   -14 LegendNANA

Notes on Data Quality.

Legend

  • E = Estimated
  • M = Missing
  • NA = Not Available
  • ‡ = Partner data that is not subject to review by the National Climate Archives
Date modified: